User: anonymous   Login
Location: Azul
(36.7830°S, 59.8500°W)
Time: 08:53:32
(UTC-03:00)
Language:

ITAMSAT 1 - Orbit

View from above orbital plane
View from above orbital plane
View from above satellite
View from above satellite

Ground track
Ground track

The orbit data is extracted from the following two-line orbital elements,

1 22826U 93061D   21294.95305012  .00000017  00000-0  24260-4 0  9998
2 22826  98.9067 315.5398 0009262  20.3040 339.8508 14.30468875464313
Epoch (UTC): 21 October 2021 22:52:23
Eccentricity: 0.0009262
inclination: 98.9067°
perigee height: 783 km
apogee height: 797 km
right ascension of ascending node: 315.5398°
argument of perigee: 20.3040°
revolutions per day: 14.30468875
mean anomaly at epoch: 339.8508°
orbit number at epoch: 46431

The dashed part of the orbit path shows where the satellite is in the earth's shadow,  

DLR